Regional Weather Roundup
Issued by NWS

Home | Current Version | Previous Version | Graphics & Text | Print | Product List | Glossary Off
Versions: 1 2 3 4 5 6 7 8 9 10 11 12 13 14 15 16 17 18 19 20 21 22 23 24 25 26 27 28 29 30 31 32 33 34 35 36 37 38 39 40 41 42 43 44 45 46 47 48 49 50

000
ASUS43 KLSX 172007
RWRMO

WEATHER SUMMARY FOR MISSOURI
NATIONAL WEATHER SERVICE SPRINGFIELD MO
200 PM CST SAT FEB 17 2018

NOTE: "FAIR" INDICATES FEW OR NO CLOUDS BELOW 12,000 FEET WITH NO
       SIGNIFICANT WEATHER AND/OR OBSTRUCTIONS TO VISIBILITY.
       CURRENT SKY AND/OR WEATHER CONDITIONS ARE NOT AVAILABLE FOR
       CHILLICOTHE AND FARMINGTON.

MOZ001>031-035>038-043-044-053-054-172100-
...NORTHERN AND WESTERN MISSOURI...

CITY           SKY/WX    TMP DP  RH WIND       PRES   REMARKS
KANSAS CTY INT MOSUNNY   52  24  33 NW17G24   30.06R
KANSAS C DTWN  SUNNY     54  25  32 NW16G24   30.05R
LEE`S SUMMIT   SUNNY     52  27  38 NW20G28   30.06R
ST JOSEPH      SUNNY     50  25  37 NW18      30.07R
CHILLICOTHE      N/A     50  23  34 W13G23    30.02R
KIRKSVILLE     MOSUNNY   45  34  65 W13       29.96S

$$
MOZ066>068-077>081-088>096-101>105-172100-
...SOUTHWEST MISSOURI...

CITY           SKY/WX    TMP DP  RH WIND       PRES   REMARKS
SPRINGFIELD    CLOUDY    42  38  85 W13G25    30.08R
JOPLIN         MOSUNNY   48  39  71 W12       30.10F
BRANSON        CLOUDY    43  41  93 W10G16    30.07F

$$
MOZ032>034-039>042-045>050-055>058-069>072-172100-
...CENTRAL MISSOURI...

CITY           SKY/WX    TMP DP  RH WIND       PRES   REMARKS
COLUMBIA       CLOUDY    42  39  89 W13       30.02R
JEFFERSON CITY CLOUDY    44  38  79 W14       30.05R
ROLLA          CLOUDY    40  39  97 W16       30.03R
SEDALIA        MOSUNNY   49  39  68 W14       30.05R
WHITEMAN AFB   SUNNY     50  34  54 W13G21    30.00R
WARRENSBURG    SUNNY     50  32  50 W10G21    30.06R
OSAGE BEACH    CLOUDY    43  38  82 W9G18     30.06R

$$
MOZ051-052-059>065-172100-
...EAST CENTRAL MISSOURI...

CITY           SKY/WX    TMP DP  RH WIND       PRES   REMARKS
ST LOUIS INTL  CLOUDY    39  38  96 SW14      30.01S FOG
SPIRIT OF STL  CLOUDY    39  38  96 W9        30.01R FOG
ST CHARLES     CLOUDY    37  35  92 W7        30.01S FOG

$$
MOZ072>076-082>087-097>100-106>115-172100-
...SOUTH CENTRAL AND SOUTHEAST MISSOURI...

CITY           SKY/WX    TMP DP  RH WIND       PRES   REMARKS
CAPE GIRARDEAU CLOUDY    39  37  92 SW7       30.05R
FARMINGTON     CLOUDY    40  37  89 MISG      30.02S
POPLAR BLUFF   CLOUDY    42  40  92 W6        30.06S
WEST PLAINS    CLOUDY    43  40  89 W12       30.05S

$$



USA.gov is the U.S. government's official web portal to all federal, state and local government web resources and services.